This is the latest recevied weather packets stored in our database for station/object W1LBM. If no packets are shown the sender has not sent any weather packets the latest 10 day(s).
| Time | Temp. | Humidity | Pressure | Rain* | Wind** | Luminosity | Snow |
|---|---|---|---|---|---|---|---|
| 1777808706 | 7.22° C | 71% | 1010 hPa | 0 mm | - | 154 W/m² | - |
| 1777808402 | 6.67° C | 70% | 1010.1 hPa | 0 mm | - | 95 W/m² | - |
| 1777808101 | 6.67° C | 70% | 1010.1 hPa | 0 mm | - | 46 W/m² | - |
| 1777807798 | 6.67° C | 70% | 1009.9 hPa | 0 mm | - | 42 W/m² | - |
| 1777807496 | 6.67° C | 72% | 1010.2 hPa | 0 mm | - | 45 W/m² | - |
| 1777807192 | 6.67° C | 71% | 1010.4 hPa | 0 mm | - | 90 W/m² | - |
| 1777806889 | 6.11° C | 71% | 1010.2 hPa | 0 mm | - | 66 W/m² | - |
| 1777806585 | 5.56° C | 73% | 1010.4 hPa | 0 mm | - | 45 W/m² | - |
| 1777806282 | 5.56° C | 72% | 1010.2 hPa | 0 mm | - | 35 W/m² | - |
| 1777805978 | 5.56° C | 72% | 1010.4 hPa | 0 mm | - | 34 W/m² | - |
| 1777805675 | 5.56° C | 72% | 1010.2 hPa | 0 mm | - | 39 W/m² | - |
| 1777805373 | 5.56° C | 73% | 1010.3 hPa | 0 mm | - | 30 W/m² | - |
| 1777805071 | 5.56° C | 73% | 1010 hPa | 0 mm | - | 27 W/m² | - |
| 1777804768 | 5.56° C | 73% | 1010 hPa | 0 mm | - | 23 W/m² | - |
| 1777804466 | 5.56° C | 73% | 1010 hPa | 0 mm | - | 21 W/m² | - |
| 1777804163 | 5.56° C | 72% | 1009.9 hPa | 0 mm | - | 21 W/m² | - |
| 1777803860 | 5.56° C | 72% | 1009.8 hPa | 0 mm | - | 22 W/m² | - |
| 1777803555 | 5.56° C | 71% | 1009.9 hPa | 0 mm | - | 22 W/m² | - |
| 1777803253 | 5.56° C | 70% | 1009.8 hPa | 0 mm | - | 17 W/m² | - |
| 1777802949 | 5.56° C | 70% | 1009.9 hPa | 0 mm | - | 13 W/m² | - |
| 1777802648 | 6.11° C | 69% | 1009.9 hPa | 0 mm | - | 8 W/m² | - |
| 1777802345 | 6.11° C | 68% | 1009.8 hPa | 0 mm | - | 6 W/m² | - |
| 1777802043 | 6.11° C | 68% | 1010 hPa | 0 mm | - | 4 W/m² | - |
| 1777801740 | 6.11° C | 68% | 1009.9 hPa | 0 mm | - | 3 W/m² | - |
| 1777801437 | 6.11° C | 68% | 1010.1 hPa | 0 mm | - | 2 W/m² | - |
* Rain latest hour (hover to see other rain measurements)
** Current wind speed in m/s (hover to see current wind gust speed)